User: anonymous   Login
Location: Unspecified
(0.0000°N, 0.0000°E)
Time: 20:19:56
(UTC+00:00)
Language:

NANOSAT-1 - Orbit

View from above orbital plane
View from above orbital plane
View from above satellite
View from above satellite

Ground track
Ground track

The orbit is defined by the following mean orbital elements,

1 28493U          26145.31955333 +.00000000 +00000-0 +12640-3 0 00005
2 28493  98.2245 281.4263 0004288  24.8121 335.3295 14.80105619    09
Epoch (UTC): 25 May 2026 07:40:09
Eccentricity: 0.0004288
inclination: 98.2245°
perigee height: 626 km
apogee height: 632 km
right ascension of ascending node: 281.4263°
argument of perigee: 24.8121°
revolutions per day: 14.80105619
mean anomaly at epoch: 335.3295°

The dashed part of the orbit path shows where the satellite is in the earth's shadow,  

DLR